User: anonymous
Location: Niverville
(49.6028°N, 97.0419°W)
Time: 18:37:28
(UTC-05:00)
Language:

Cosmos 1154 Rocket - Orbit

View from above orbital plane
View from above orbital plane
View from above satellite
View from above satellite

Ground track
Ground track

The orbit data is extracted from the following two-line orbital elements,

1 11683U 80008B   14203.09326543  .00048668  00000-0  22734-3 0  4074
2 11683 081.1673 345.9065 0009708 263.4815 096.5344 15.83007874897820
Epoch (UTC): 22 July 2014 02:14:18
Eccentricity: 0.0009708
inclination: 81.1673°
perigee height: 315 km
apogee height: 328 km
right ascension of ascending node: 345.9065°
argument of perigee: 263.4815°
revolutions per day: 15.83007874
mean anomaly at epoch: 96.5344°
orbit number at epoch: 89782

The dashed part of the orbit path shows where the satellite is in the earth's shadow,  

DLR